Volver al catálogo

CZ-6A DEB

ActivoPO
NORAD 60701·DEBRIS·🇨🇳 China

Lanzado Aug 6, 2024 desde Taiyuan Satellite Launch Center

Loading…

Próximos Pases (próximas 24 horas)

TLE

ActualizadoSource: Space-Track

Época: Sep 14, 2026, 13:42 UTC

1 60701U 24140DE  26257.57107464  .00000781  00000-0  33881-3 0  9993
2 60701  89.3536 296.5678 0088310 311.3815  47.9806 14.21389282108389

Sigue CZ-6A DEB en tiempo real con AllMySat

Download on the App Store